Location: Unspecified
(42.3650°N, 71.1030°W)
Time: 15:33:52
(UTC+00:00)

Transit 2A - Pass Details

Date: 28 June 2024
Orbit: 591 x 960 km, 66.7° (Epoch: 16 July)

Event Time Altitude Azimuth Distance (km) Brightness Sun altitude
Rises 03:49:32 0° 325° (NW) 3,571 10.6 -23.0°
Reaches altitude 10° 03:52:04 10° 322° (NW) 2,656 9.7 -23.1°
Maximum altitude 03:58:11 56° 246° (WSW) 1,127 6.7 -23.4°
Enters shadow 03:59:43 45° 199° (SSW) 1,282 6.7 -23.4°
